User: anonymous   Login
Location: Unspecified
(0.0000°N, 0.0000°E)
Time: 08:22:18
(UTC+02:00)
Language:

NATO 3D Rocket - Orbit

View from above orbital plane
View from above orbital plane
View from above satellite
View from above satellite

Ground track
Ground track

The orbit data is extracted from the following two-line orbital elements,

1 15392U 84115B   16238.96265185 +.00000163 +00000-0 +51645-5 0  9997
2 15392 021.4892 220.1568 1034527 131.8971 237.4423 12.45535905429384
Epoch (UTC): 25 August 2016 23:06:13
Eccentricity: 0.1034527
inclination: 21.4892°
perigee height: 670 km
apogee height: 2296 km
right ascension of ascending node: 220.1568°
argument of perigee: 131.8971°
revolutions per day: 12.45535905
mean anomaly at epoch: 237.4423°
orbit number at epoch: 42938

The dashed part of the orbit path shows where the satellite is in the earth's shadow,  

DLR